Flag for Switzerland Weather past 2 weeks in Spiez, Bern, Switzerland

Now
40 °F

Quite cool.


Feels Like: 37 °F
Forecast: 36 / 49 °F
Wind: 5 mph from Southwest

Location: Interlaken

Current Time: Dec 21, 2014 at 4:30:39 AM

Latest Report: Dec 21, 2014 at 3:00 AM


Visibility: N/A

Pressure: 30.55 "Hg

Humidity: 70%

Dew point: 31 °F

Location of SpiezLocation

Historic Weather in Spiez — Graph

°F

Spiez temperature yesterday

Maximum temperature yesterday: 49 °F (at 3:00 PM)
Minimum temperature yesterday: 43 °F (at 11:00 PM)
Average temperature yesterday: 45 °F

Past Weeks' High & Low Weather Summary

 TemperatureHumidityPressure
High49 °F (Dec 20, 3:00 PM)100% (Dec 16, 8:00 AM)30.56 "Hg (Dec 16, 8:00 AM)
Low27 °F (Dec 10, 6:00 AM)49% (Dec 11, 5:00 PM)29.93 "Hg (Dec 12, 9:00 PM)
Average39 °F87%30.18 "Hg
* Reported Dec 6 3:00 AM — Dec 21 3:00 AM, Spiez, Weather by CustomWeather, © 2014

Note: Actual official high and low records may vary slightly from our data, if they occured in-between our weather recording intervals... More about our weather records

Advertising

Spiez weather history for previous 24 hours

 ConditionsComfort  
Time TempWeatherWind HumidityBarometerVisibility
3:00 AM
Dec 21
40 °FQuite cool.5 mph70%30.55 "HgN/A
2:00 AM39 °FChilly.5 mph76%30.56 "HgN/A
1:00 AM42 °FQuite cool.2 mph55%30.55 "HgN/A
12:00 AM43 °FQuite cool.3 mph51%30.55 "HgN/A
11:00 PM
Dec 20
43 °FQuite cool.7 mph56%30.53 "HgN/A
9:00 PM43 °FQuite cool.14 mph63%30.47 "HgN/A
8:00 PM44 °FQuite cool.5 mph62%30.45 "HgN/A
7:00 PM45 °FCool.6 mph64%30.41 "HgN/A
6:00 PM46 °FCool.17 mph68%30.35 "HgN/A
5:00 PM46 °FCool.10 mph75%30.33 "HgN/A
4:00 PM46 °FCool.9 mph77%30.31 "HgN/A
3:00 PM49 °FCool.2 mph79%30.31 "HgN/A
2:00 PM48 °FCool.12 mph76%30.28 "HgN/A
1:00 PM48 °FCool.7 mph82%30.34 "HgN/A
12:00 PM47 °FCool.8 mph84%30.36 "HgN/A
11:00 AM47 °FCool.8 mph84%30.37 "HgN/A
10:00 AM44 °FQuite cool.5 mph93%30.38 "HgN/A
9:00 AM45 °FQuite cool.5 mph94%30.37 "HgN/A
8:00 AM43 °FQuite cool.1 mph100%30.37 "HgN/A
7:00 AM43 °FQuite cool.3 mph100%30.37 "HgN/A
6:00 AM43 °FQuite cool.1 mph100%30.38 "HgN/A
5:00 AM44 °FQuite cool.3 mph100%30.37 "HgN/A
4:00 AM44 °FQuite cool.1 mph100%30.36 "HgN/A
Weather by CustomWeather, © 2014

See weather overviewHow to use our weather pages